Regional Weather Roundup
Issued by NWS

Home | Current Version | Previous Version | Graphics & Text | Print | Product List | Glossary On
Versions: 1 2 3 4 5 6 7 8 9 10 11 12 13 14 15 16 17 18 19 20 21 22 23 24 25 26 27 28 29 30 31 32 33 34 35 36 37 38 39 40 41 42 43 44 45 46 47 48 49 50
000
ASUS45 KTFX 250404
RWRMT
MONTANA HOURLY WEATHER ROUNDUP
NATIONAL WEATHER SERVICE GREAT FALLS MT
1004 PM MDT THU JUL 24 2014

NOTE: "FAIR" INDICATES FEW OR NO CLOUDS BELOW 12000 FEET WITH NO
SIGNIFICANT WEATHER AND/OR OBSTRUCTIONS TO VISIBILITY.

* THESE STATIONS ARE NOT UNDER NWS QUALITY CONTROL. THEY DO NOT
   REPORT WEATHER SUCH AS PRECIPITATION OR FOG.

MTZ001>007-043-250500-
WEST OF THE DIVIDE
CITY           SKY/WX    TMP DP  RH WIND       PRES   REMARKS
KALISPELL      PTCLDY    57  39  51 S7        30.08S
MISSOULA       CLEAR     61  36  39 NW9       30.12R
BUTTE          CLEAR     61  30  31 N9        30.14R
MULLAN PASS    MOCLDY    45  37  74 VRB5      30.19R
* ESSEX        N/A       55  38  53 SE6G11     N/A
* LINCOLN      N/A       56  34  44 SW5G17     N/A
* LOOKOUT PASS N/A       50  41  71 SW1        N/A
* POLSON       N/A       55  39  55 SW1        N/A
* RONAN APT    PTCLDY    61  45  56 N/A        N/A
* SEELEY LAKE  N/A       55  35  47 W2G15      N/A
* THOMP F APT  CLEAR     63  15  15 E4G14      N/A
$$

MTZ008-052>055-250500-
SOUTHWEST MONTANA
CITY           SKY/WX    TMP DP  RH WIND       PRES   REMARKS
BOZEMAN        CLEAR     59  36  42 N7        30.03R
DILLON         CLEAR     64  27  25 W5        30.06R
W YELLOWSTONE  CLEAR     59  30  33 SW12      30.17R
* THREE FORKS  CLEAR     68  34  28 N/A        N/A
* BOULDER HILL N/A       54  27  35 NE2        N/A
* MONIDA PASS  N/A       58  15  18 SE11       N/A
* RAYNOLDS PAS N/A       56  37  49 SE12       N/A
* WHITEHALL    N/A       69  25  19 NW10G22    N/A
* WISE RIVER   N/A       59  28  31 W10G16     N/A
$$

MTZ009>010-012-014-046-048-049-054-250500-
EAST SLOPES AND CENTRAL MONTANA
CITY           SKY/WX    TMP DP  RH WIND       PRES   REMARKS
CUT BANK       CLEAR     55  36  49 W32G37    29.92R
GREAT FALLS    CLEAR     59  34  39 W17G28    29.96R
HELENA         CLEAR     64  34  33 W9        30.04R
MALMSTROM AFB  CLEAR     63  32  31 W22G30    29.97S
* CONRAD       CLEAR     59  41  51 SW15G23    N/A
* DEARBORN     N/A       65  34  32 S14G24     N/A
* EAST GLACIER N/A       52  35  52 SE15G22    N/A
* MONARCH      N/A       54  20  26 W7         N/A
* SAINT MARY   N/A       49  39  69 S12G35     N/A
* SWEET GRASS  N/A       56  33  42 SW18G27    N/A
$$

MTZ011-013-016-021-035-040-045-047-050-051-250500-
NORTH CENTRAL MONTANA
CITY           SKY/WX    TMP DP  RH WIND       PRES   REMARKS
HAVRE          CLEAR     61  36  39 W18       29.86R
LEWISTOWN      CLEAR     63  28  27 N/A       29.97R
* CHESTER      N/A       62  33  34 W13G25     N/A
* DENTON       N/A       61  26  26 NE5        N/A
* JUDITH GAP   N/A       61  30  31 VRB8       N/A
* LOMA         N/A       63  35  35 SW4G13     N/A
$$

MTZ017>020-022>027-061-062-250500-
NORTHEAST MONTANA
CITY           SKY/WX    TMP DP  RH WIND       PRES   REMARKS
GLASGOW        CLEAR     64  37  37 N5        29.84R
GLENDIVE       CLOUDY    64  50  61 N21G30    29.85R
JORDAN         CLEAR     63  39  41 NE8       29.86R
SIDNEY         CLOUDY    64  55  73 NW9       29.84R
WOLF POINT     CLEAR     61  54  78 CALM      29.85R
* BEAVER HILL  N/A       63  53  70 N20G30     N/A
* CIRCLE       N/A       67  44  44 NE2        N/A
* LINDSAY DVD  N/A       60  51  72 N14G20     N/A
* NAVAJO       N/A       56  53  90 N/A        N/A
$$

MTZ028>042-056>058-250500-
SOUTHCENTRAL AND SOUTHEAST MONTANA
CITY           SKY/WX    TMP DP  RH WIND       PRES   REMARKS
BAKER          PTCLDY    66  52  61 NW15G29   29.86R
BILLINGS       CLEAR     73  36  26 N9        29.93R
LIVINGSTON     CLEAR     70  28  21 NW16G23   29.99R
MILES CITY     CLEAR     70  48  46 NE9       29.88R
* LAUREL APT   CLEAR     72  39  30 N/A        N/A
* ROUNDUP APT  CLEAR     70  27  20 N/A        N/A
* ALZADA       N/A       69  64  84 NW13       N/A
* HYSHAM       N/A       71  35  27 W3G9       N/A
* LAME DEER    N/A       68  45  44 VRB14G23    N/A
* REED POINT   N/A       73  34  24 W6         N/A
* ROSCOE HILL  N/A       66  36  33 E9         N/A
$$

REGIONAL REPORTS...DAKOTAS
CITY           SKY/WX    TMP DP  RH WIND       PRES   REMARKS
WILLISTON      CLOUDY    66  61  84 NE10      29.78S
DICKINSON      CLOUDY    70  66  87 N5        29.72S
CROSBY         TSTM      63  63 100 CALM      29.78F
TIOGA          TSTM      66  66 100 S5        29.79R
WATFORD CITY   MOCLDY    66  64  93 N14G25    29.74R
BISMARCK       CLOUDY    72  64  76 E6        29.72S
GRAND FORKS    MOCLDY    70  63  79 SE6       29.81R
FARGO          CLOUDY    72  63  73 SE9       29.80R
BUFFALO SD     PTCLDY    72  59  64 NW17G33   29.73R
RAPID CITY     PTCLDY    84  57  40 NW13G22   29.71R HI  83
$$

REGIONAL REPORTS...WYOMING/IDAHO/WASHINGTON
CITY           SKY/WX    TMP DP  RH WIND       PRES   REMARKS
GILLETTE       CLEAR     79  54  42 N16G26    29.89R
SHERIDAN       CLEAR     70  52  53 NW3       29.95R
YELLOWSTONE LA CLEAR     55  19  24 VRB6      30.27R
SALMON         CLEAR     70  30  23 N15G29    30.01R
MULLAN PASS    MOCLDY    45  37  74 VRB5      30.19S
SAND POINT     CLOUDY    55  55 100 CALM      30.07S
SPOKANE        MOCLDY    66  43  43 S9        30.07S
$$

REGIONAL REPORTS...ALBERTA
CITY           SKY/WX    TMP DP  RH WIND       PRES   REMARKS
EDMONTON       LGT RAIN  61  48  62 NW15G23   29.62R

$$




USA.gov is the U.S. government's official web portal to all federal, state and local government web resources and services.